| time (UTC) | temp F | wind direction | speed knots | gust knots | rain 1hr in | rain 24hr in | rain mn in | humidity % | barometer mb |
| 20260502214059 | 0 | 293 | 2.6 | 2.6 | 0.00 | 0.00 | 0.00 | 1017.7 | |
| 20260502212916 | 0 | 45 | 1.7 | 1.7 | 0.00 | 0.00 | 0.00 | 1017.5 | |
| 20260502211735 | 0 | 45 | 0.9 | 1.7 | 0.00 | 0.00 | 0.00 | 1017.5 | |
| 20260502210550 | 0 | 23 | 1.7 | 2.6 | 0.00 | 0.00 | 0.00 | 1017.5 | |
| 20260502205406 | 0 | 45 | 1.7 | 2.6 | 0.00 | 0.00 | 0.00 | 1017.6 | |
| 20260502204224 | 0 | 338 | 1.7 | 2.6 | 0.00 | 0.00 | 0.00 | 1017.5 | |
| 20260502203042 | 0 | 293 | 1.7 | 1.7 | 0.00 | 0.00 | 0.00 | 1017.4 | |
| 20260502201859 | 0 | 293 | 1.7 | 1.7 | 0.00 | 0.00 | 0.00 | 1017.4 | |
| 20260502200716 | 0 | 293 | 0.9 | 1.7 | 0.00 | 0.00 | 0.00 | 1017.4 | |
| 20260502195530 | 0 | 0 | 1.7 | 2.6 | 0.00 | 0.00 | 0.00 | 1017.5 | |
| 20260502194346 | 0 | 135 | 0.9 | 1.7 | 0.00 | 0.00 | 0.00 | 1017.3 | |
| 20260502193204 | 0 | 45 | 0.0 | 0.9 | 0.00 | 0.00 | 0.00 | 1017.1 | |
| 20260502192021 | 0 | 45 | 0.9 | 2.6 | 0.00 | 0.00 | 0.00 | 1016.9 | |
| 20260502190839 | 0 | 90 | 0.0 | 1.7 | 0.00 | 0.00 | 0.00 | 1016.8 | |
| 20260502185656 | 0 | 158 | 1.7 | 2.6 | 0.00 | 0.00 | 0.00 | 1016.5 | |
| 20260502184515 | 0 | 90 | 1.7 | 1.7 | 0.00 | 0.00 | 0.00 | 1016.3 | |
| 20260502183337 | 0 | 158 | 0.0 | 0.0 | 0.00 | 0.00 | 0.00 | 1016.1 | |
| 20260502182158 | 0 | 158 | 0.0 | 0.9 | 0.00 | 0.00 | 0.00 | 1015.8 | |
| 20260502181020 | 0 | 180 | 0.0 | 1.7 | 0.00 | 0.00 | 0.00 | 1015.3 | |
| 20260502163715 | 0 | 338 | 1.7 | 6.1 | 0.00 | 0.00 | 0.00 | 1014.5 | |
| 20260502162538 | 0 | 135 | 1.7 | 5.2 | 0.00 | 0.00 | 0.00 | 1014.7 | |
| 20260502161358 | 0 | 90 | 1.7 | 5.2 | 0.00 | 0.00 | 0.00 | 1015.0 | |
| 20260502160220 | 0 | 225 | 3.5 | 5.2 | 0.00 | 0.00 | 0.00 | 1015.2 | |
| 20260502151523 | 0 | 225 | 1.7 | 7.8 | 0.00 | 0.00 | 0.00 | 1015.7 | |
| 20260502150345 | 0 | 293 | 3.5 | 5.2 | 0.00 | 0.00 | 0.00 | 1015.9 | |
| 20260502130721 | 0 | 0 | 0.9 | 7.0 | 0.00 | 0.00 | 0.00 | 1017.1 | |
| 20260502123227 | 0 | 270 | 2.6 | 6.1 | 0.00 | 0.00 | 0.00 | 1017.7 | |
| 20260502122049 | 0 | 135 | 2.6 | 6.1 | 0.00 | 0.00 | 0.00 | 1017.8 | |
| 20260502120911 | 0 | 158 | 2.6 | 7.0 | 0.00 | 0.00 | 0.00 | 1018.0 | |
| 20260502115733 | 0 | 158 | 0.9 | 5.2 | 0.00 | 0.00 | 0.00 | 1018.1 | |
| 20260502114555 | 0 | 225 | 0.9 | 8.7 | 0.00 | 0.00 | 0.00 | 1018.3 | |
| 20260502113416 | 0 | 338 | 2.6 | 6.1 | 0.00 | 0.00 | 0.00 | 1018.6 | |
| 20260502112237 | 0 | 338 | 4.3 | 7.0 | 0.00 | 0.00 | 0.00 | 1018.6 | |
| 20260502111100 | 0 | 225 | 2.6 | 12.2 | 0.00 | 0.00 | 0.00 | 1018.7 | |
| 20260502105921 | 0 | 248 | 0.9 | 7.8 | 0.00 | 0.00 | 0.00 | 1019.0 | |
| 20260502104743 | 0 | 270 | 2.6 | 4.3 | 0.00 | 0.00 | 0.00 | 1019.2 | |
| 20260502103606 | 0 | 158 | 0.9 | 7.8 | 0.00 | 0.00 | 0.00 | 1019.4 | |
| 20260502102424 | 0 | 158 | 5.2 | 7.8 | 0.00 | 0.00 | 0.00 | 1019.5 | |
| 20260502101247 | 0 | 315 | 1.7 | 8.7 | 0.00 | 0.00 | 0.00 | 1019.6 | |
| 20260502100109 | 0 | 270 | 3.5 | 6.1 | 0.00 | 0.00 | 0.00 | 1019.7 | |
| 20260502091435 | 0 | 270 | 0.9 | 6.1 | 0.00 | 0.00 | 0.00 | 1020.7 | |
| 20260502090257 | 0 | 315 | 3.5 | 7.0 | 0.00 | 0.00 | 0.00 | 1020.8 | |
| 20260502070630 | 0 | 315 | 0.9 | 4.3 | 0.00 | 0.00 | 0.00 | 1021.6 | |
| 20260502065451 | 0 | 315 | 0.9 | 2.6 | 0.00 | 0.00 | 0.00 | 1021.8 | |
| 20260502064313 | 0 | 135 | 0.0 | 1.7 | 0.00 | 0.00 | 0.00 | 1022.0 | |
| 20260502063135 | 0 | 293 | 0.9 | 0.9 | 0.00 | 0.00 | 0.00 | 1022.3 | |
| 20260502061953 | 0 | 270 | 0.0 | 0.9 | 0.00 | 0.00 | 0.00 | 1022.7 | |
| 20260502060811 | 0 | 270 | 0.9 | 1.7 | 0.00 | 0.00 | 0.00 | 1023.0 | |
| 20260502055627 | 0 | 270 | 1.7 | 2.6 | 0.00 | 0.00 | 0.00 | 1023.3 | |
| 20260502054445 | 0 | 293 | 1.7 | 3.5 | 0.00 | 0.00 | 0.00 | 1023.5 | |
| 20260502053303 | 0 | 270 | 0.0 | 3.5 | 0.00 | 0.00 | 0.00 | 1023.7 | |
| 20260502052123 | 0 | 315 | 0.9 | 2.6 | 0.00 | 0.00 | 0.00 | 1024.0 | |
| 20260502050936 | 0 | 270 | 0.9 | 1.7 | 0.00 | 0.00 | 0.00 | 1024.1 | |
| 20260502045752 | 0 | 270 | 0.9 | 1.7 | 0.00 | 0.00 | 0.00 | 1024.2 | |
| 20260502044611 | 0 | 270 | 0.9 | 3.5 | 0.00 | 0.00 | 0.00 | 1024.5 | |
| 20260502043431 | 0 | 0 | 2.6 | 3.5 | 0.00 | 0.00 | 0.00 | 1024.5 | |
| 20260502042250 | 0 | 270 | 1.7 | 2.6 | 0.00 | 0.00 | 0.00 | 1024.7 | |
| 20260502041109 | 0 | 270 | 2.6 | 3.5 | 0.00 | 0.00 | 0.00 | 1024.7 | |
| 20260502035926 | 0 | 90 | 1.7 | 2.6 | 0.00 | 0.00 | 0.00 | 1024.5 | |
| 20260502034745 | 0 | 293 | 1.7 | 1.7 | 0.00 | 0.00 | 0.00 | 1024.6 | |
| 20260502033603 | 0 | 270 | 1.7 | 1.7 | 0.00 | 0.00 | 0.00 | 1024.5 | |
| 20260502032419 | 0 | 293 | 0.0 | 1.7 | 0.00 | 0.00 | 0.00 | 1024.5 | |
| 20260502031239 | 0 | 270 | 0.0 | 1.7 | 0.00 | 0.00 | 0.00 | 1024.5 | |
| 20260502030058 | 0 | 270 | 0.9 | 2.6 | 0.00 | 0.00 | 0.00 | 1024.6 | |
| 20260502024916 | 0 | 270 | 1.7 | 3.5 | 0.00 | 0.00 | 0.00 | 1024.7 | |
| 20260502023736 | 0 | 293 | 1.7 | 3.5 | 0.00 | 0.00 | 0.00 | 1024.7 | |
| 20260502022556 | 0 | 293 | 1.7 | 1.7 | 0.00 | 0.00 | 0.00 | 1024.6 | |
| 20260502021414 | 0 | 293 | 0.9 | 1.7 | 0.00 | 0.00 | 0.00 | 1024.6 | |
| 20260502020234 | 0 | 270 | 0.9 | 3.5 | 0.00 | 0.00 | 0.00 | 1024.5 | |
| 20260502015053 | 0 | 90 | 1.7 | 1.7 | 0.00 | 0.00 | 0.00 | 1024.6 | |
| 20260502013913 | 0 | 270 | 0.0 | 1.7 | 0.00 | 0.00 | 0.00 | 1024.7 | |
| 20260502012732 | 0 | 270 | 0.0 | 1.7 | 0.00 | 0.00 | 0.00 | 1024.7 | |
| 20260502011550 | 0 | 270 | 0.9 | 1.7 | 0.00 | 0.00 | 0.00 | 1024.8 | |
| 20260502010409 | 0 | 270 | 0.0 | 1.7 | 0.00 | 0.00 | 0.00 | 1024.7 | |
| 20260502005230 | 0 | 293 | 0.0 | 1.7 | 0.00 | 0.00 | 0.00 | 1024.7 | |
| 20260502004048 | 0 | 315 | 0.9 | 1.7 | 0.00 | 0.00 | 0.00 | 1024.7 | |
| 20260502002906 | 0 | 315 | 0.9 | 2.6 | 0.00 | 0.00 | 0.00 | 1024.7 | |
| 20260502001725 | 0 | 90 | 1.7 | 2.6 | 0.00 | 0.00 | 0.00 | 1024.7 | |
| 20260502000544 | 0 | 158 | 2.6 | 4.3 | 0.00 | 0.00 | 0.00 | 1024.7 | |
| 20260501235404 | 0 | 45 | 0.9 | 2.6 | 0.00 | 0.00 | 0.00 | 1024.7 | |
| 20260501234223 | 0 | 293 | 2.6 | 2.6 | 0.00 | 0.00 | 0.00 | 1024.7 | |
| 20260501233043 | 0 | 293 | 1.7 | 1.7 | 0.00 | 0.00 | 0.00 | 1024.6 | |
| 20260501231903 | 0 | 293 | 0.9 | 1.7 | 0.00 | 0.00 | 0.00 | 1024.7 | |
| 20260501230723 | 0 | 45 | 0.9 | 2.6 | 0.00 | 0.00 | 0.00 | 1024.8 | |
| 20260501225543 | 0 | 90 | 1.7 | 2.6 | 0.00 | 0.00 | 0.00 | 1024.8 | |
| 20260501224404 | 0 | 90 | 0.9 | 2.6 | 0.00 | 0.00 | 0.00 | 1024.8 | |
| 20260501223220 | 0 | 45 | 2.6 | 2.6 | 0.00 | 0.00 | 0.00 | 1024.8 | |
| 20260501220854 | 0 | 158 | 0.9 | 2.6 | 0.00 | 0.00 | 0.00 | 1024.7 | |
| 20260501215712 | 0 | 90 | 1.7 | 2.6 | 0.00 | 0.00 | 0.00 | 1024.7 |